Vorticity
8 8 8 8 8 8 8 8 8 8 8 9 9 10 9 8 7 7 7 8 9 10 10 11 10 10 10 12 16 21 28 36 35 27 15 3 -1 -2 -3 -3 -2 -1 0 4 9 14 15 8 3 5 9 15 17 16 15 14 14 15 16 17 19 20 22 24 24 23 20 17 15
8 8 8 8 8 8 8 8 8 8 9 10 10 10 9 8 7 6 7 8 9 9 9 10 10 10 10 11 15 20 26 33 36 31 21 8 1 -2 -3 -3 -2 -2 0 4 9 14 15 9 4 6 10 16 16 14 13 13 12 12 12 13 15 18 21 24 25 25 23 21 19
8 8 8 8 8 8 8 8 8 9 9 10 10 10 9 8 7 7 7 8 8 9 10 10 10 10 10 10 14 19 25 31 35 33 25 13 4 -1 -3 -3 -2 -1 0 4 8 13 14 10 6 8 12 16 15 13 12 12 11 9 8 8 10 13 16 20 24 25 25 25 24
8 8 8 8 8 8 8 8 8 9 9 10 10 10 9 8 7 6 6 7 8 9 10 10 10 10 10 10 13 18 24 31 35 34 28 16 6 1 -2 -2 -2 -2 0 4 8 12 14 12 8 9 12 15 14 12 11 13 12 10 6 4 5 6 8 11 17 22 25 30 34
8 8 8 8 8 8 8 8 8 9 9 10 10 10 9 7 6 6 6 7 8 9 9 10 10 9 9 10 12 16 22 29 36 36 30 19 8 2 -1 -2 -2 -2 -0 4 8 11 13 12 9 10 11 13 11 10 11 14 16 13 9 5 3 3 2 0 4 10 17 23 32
8 8 8 8 7 8 8 9 9 9 9 10 10 10 9 7 6 6 7 7 8 8 9 10 10 10 9 10 12 15 20 27 35 37 33 22 11 4 0 -0 -2 -2 0 4 7 10 12 12 9 9 9 9 7 7 10 15 17 17 14 10 6 4 2 -2 -7 -5 2 8 14
7 7 7 7 7 7 8 8 9 9 10 10 11 10 9 7 7 6 7 7 7 8 9 9 10 10 10 10 11 14 19 24 34 38 35 25 13 6 2 0 -1 -1 0 3 6 10 11 10 7 6 6 5 4 6 9 14 16 17 17 16 13 10 8 4 -5 -9 -8 -3 -1
7 7 7 7 7 7 8 8 9 9 10 11 11 10 9 8 7 6 6 7 7 8 8 9 10 10 10 10 11 13 17 22 31 37 38 29 16 8 3 1 1 0 1 2 5 9 11 10 6 4 3 2 2 4 8 12 13 14 16 19 19 18 15 12 7 1 -4 -5 -6
7 7 7 7 7 7 8 8 9 9 10 11 11 11 9 8 7 6 6 7 8 8 8 9 9 10 10 10 11 13 16 20 27 35 38 33 20 11 5 2 2 2 2 1 4 8 11 11 6 4 3 2 1 4 7 9 10 11 13 17 21 22 21 19 17 13 8 3 1
7 7 7 7 7 7 8 8 9 10 10 11 11 11 10 8 7 6 7 7 7 8 8 9 9 9 10 10 11 12 15 20 25 32 36 36 25 14 6 3 3 3 3 1 3 6 10 12 8 5 3 4 3 5 7 7 6 5 7 12 18 21 21 20 20 18 15 11 9
7 7 7 7 7 7 8 8 9 10 11 11 11 11 10 8 7 6 6 6 7 8 9 8 9 9 10 10 10 12 14 19 24 29 33 36 29 18 9 4 5 5 4 2 2 5 9 12 10 7 5 6 6 7 8 8 3 0 1 6 12 14 12 12 15 16 16 14 12
7 7 6 6 7 7 8 8 9 10 11 11 12 11 10 8 7 6 6 7 8 8 8 8 9 9 10 10 10 11 13 18 23 27 30 32 29 21 13 7 7 6 5 3 2 3 7 10 10 8 6 7 8 9 9 9 4 -1 -2 1 7 8 7 6 10 14 16 16 14
6 6 6 6 7 7 8 8 9 10 11 11 12 11 10 9 7 6 6 7 8 8 8 9 9 9 10 10 10 11 12 16 22 27 29 27 26 22 15 9 8 7 6 4 2 3 4 7 8 7 7 7 9 9 9 9 6 2 -1 -1 3 5 6 6 9 12 15 15 13
6 6 6 6 6 7 8 8 9 10 11 11 12 12 11 9 7 6 6 7 8 8 8 8 9 10 10 10 11 11 12 14 21 26 29 25 22 19 16 12 10 8 6 5 3 2 3 4 4 4 5 6 8 10 10 9 7 5 2 0 1 2 4 6 7 9 11 12 9
6 6 6 6 6 7 8 8 9 10 11 11 12 12 11 9 8 7 6 7 7 8 8 8 9 9 10 11 11 12 12 13 19 25 29 27 21 17 15 14 12 10 7 4 3 2 1 1 1 1 2 4 7 9 10 11 10 8 5 3 1 0 1 2 3 4 4 5 4
6 6 6 6 6 7 8 8 9 10 11 11 12 11 11 9 8 7 6 7 7 8 8 9 8 9 9 11 12 12 12 12 16 23 29 30 23 16 12 13 14 12 8 4 2 1 0 -1 -2 -1 0 3 5 6 8 10 11 11 9 7 4 2 0 -0 -1 -1 -1 -1 -1
6 6 6 6 7 7 8 8 9 10 11 11 11 11 11 10 8 7 7 6 7 8 8 9 9 8 9 10 12 13 13 12 15 20 27 32 26 17 10 9 12 12 10 6 4 2 1 -1 -2 -2 -0 2 4 5 6 7 9 11 12 12 10 7 4 1 -0 -1 -2 -3 -3
6 6 6 6 7 7 8 8 9 10 10 11 11 11 11 10 9 8 7 7 7 7 8 9 9 9 9 9 11 12 13 13 14 17 23 31 30 22 12 6 8 10 11 10 7 4 3 1 -0 -0 1 3 4 5 5 5 6 8 10 13 13 12 10 7 4 2 -0 -2 -2
6 6 6 6 7 7 8 8 9 10 10 11 11 11 11 10 9 8 7 7 7 7 8 8 9 9 10 9 10 12 13 13 13 15 19 26 32 28 19 10 7 8 10 11 9 6 5 3 2 2 3 4 5 5 5 4 5 6 8 11 13 14 14 12 10 7 4 2 0
6 6 6 6 7 7 8 8 9 9 10 10 11 11 11 10 10 8 8 7 7 7 8 8 9 9 10 10 10 11 13 14 13 13 15 20 28 31 28 19 13 8 6 7 6 5 4 3 3 3 4 5 5 5 5 5 6 7 9 12 14 14 15 14 13 11 8 6 4
6 6 6 6 7 7 8 8 9 9 10 10 11 11 11 10 10 9 8 7 7 7 8 8 9 10 10 10 10 11 12 13 14 13 13 15 22 29 32 29 22 13 5 1 1 1 1 1 1 2 3 4 4 4 4 4 6 9 14 18 19 18 17 15 14 12 11 9 6
6 6 6 6 7 7 8 8 8 9 10 10 11 11 11 11 10 9 8 7 7 7 8 8 9 10 10 10 10 11 11 13 14 14 13 13 16 23 29 33 29 20 9 -1 -3 -3 -2 -1 -0 1 1 2 2 2 2 1 3 9 16 24 27 26 22 18 15 13 11 10 8
6 6 6 6 7 7 8 8 8 9 10 10 10 10 11 11 10 9 9 8 7 7 8 8 9 10 10 10 10 10 11 12 14 14 14 13 13 17 23 30 33 28 18 5 -2 -4 -4 -2 0 1 1 1 1 1 0 -1 0 5 14 27 33 34 30 24 18 14 12 10 8
6 6 6 6 7 7 7 8 8 9 9 10 10 10 10 10 10 10 9 8 8 7 7 8 9 9 10 10 10 10 11 12 13 14 14 14 13 14 18 24 31 32 27 16 3 -2 -2 3 2 1 1 1 1 0 0 -0 -1 2 8 21 33 38 37 31 25 19 15 11 9
6 6 6 6 7 7 7 8 8 9 9 10 10 10 10 10 10 10 9 8 8 7 7 8 9 9 9 9 10 11 12 12 13 14 14 15 14 13 15 19 26 32 33 28 13 -1 -7 3 2 1 1 2 1 0 0 1 0 1 4 12 24 33 38 37 32 27 22 17 13
6 6 6 6 7 7 8 8 8 9 9 9 9 10 10 10 10 10 9 9 8 8 7 8 8 9 9 10 10 11 12 12 13 13 14 15 14 14 14 15 21 27 32 34 25 8 -6 -6 5 5 1 1 0 0 0 1 2 2 3 6 13 21 29 35 35 33 30 25 21
6 6 6 6 7 7 8 8 8 9 9 9 9 9 10 10 10 10 9 9 8 8 7 8 8 9 9 10 10 11 11 12 12 13 14 14 15 14 14 14 17 21 26 32 31 23 9 -7 -5 -1 1 -0 -1 -1 -0 1 3 5 6 5 6 10 16 23 29 32 33 32 29
6 6 6 6 7 7 8 8 9 9 9 9 9 9 9 9 10 10 10 9 8 8 7 7 8 8 9 10 11 11 11 11 12 13 13 14 15 15 14 14 15 17 20 25 29 29 22 9 1 -2 -1 -0 -0 -0 0 2 6 8 9 7 5 6 8 13 18 24 29 32 32
6 6 6 6 7 7 8 8 9 9 9 9 9 9 9 10 10 10 9 9 8 8 8 7 7 8 9 11 11 11 11 11 12 12 13 13 14 15 15 14 14 15 16 19 24 27 28 22 10 3 1 6 5 4 3 5 9 12 13 11 7 6 6 7 10 14 19 24 28
6 6 6 6 7 7 8 8 9 9 9 9 9 9 9 9 10 10 9 9 9 8 8 7 7 8 9 10 10 11 11 11 12 12 12 13 14 14 14 14 14 15 15 15 18 22 26 28 22 11 2 3 6 6 5 8 12 15 16 15 11 8 7 7 8 9 12 16 21
6 6 6 6 7 7 8 8 8 9 9 9 9 9 9 9 9 9 10 10 9 9 8 7 8 8 9 9 10 11 11 11 11 12 13 13 14 14 14 14 14 14 15 14 15 17 20 23 24 18 8 -2 0 3 6 9 12 14 16 17 15 13 11 10 10 9 10 12 16
6 6 6 6 7 7 8 8 8 9 9 9 9 9 9 9 9 9 9 10 9 9 8 8 8 8 8 9 10 11 11 11 11 12 13 14 14 14 14 14 14 14 14 14 14 14 15 17 20 20 17 10 7 7 9 12 13 13 14 16 17 17 15 14 13 12 10 10 13
6 6 6 7 7 7 7 8 8 9 9 9 9 9 9 9 9 9 9 9 9 9 9 9 8 8 8 8 9 10 11 11 11 12 13 14 14 15 15 14 14 14 14 14 14 13 13 14 16 17 16 13 13 14 16 18 16 14 13 15 17 18 18 18 17 15 12 9 9
6 6 6 7 7 7 8 8 8 8 9 9 9 9 9 9 9 9 9 10 10 10 10 9 9 8 8 8 9 9 10 11 11 11 12 13 14 15 15 16 15 15 15 15 15 14 14 14 15 16 17 16 17 19 21 21 18 14 12 13 15 16 16 16 16 15 13 8 6
6 6 6 7 7 7 8 8 8 8 9 9 9 9 9 9 9 9 9 10 10 10 10 10 10 9 9 8 9 9 9 10 10 11 11 12 13 14 15 16 16 17 17 17 16 16 15 15 15 16 18 20 21 21 20 17 13 10 9 9 11 12 12 11 12 12 11 8 4
6 6 6 6 7 7 8 8 8 8 9 9 9 9 9 9 9 9 10 10 10 10 10 10 10 10 10 9 9 9 9 9 9 9 10 11 12 13 14 14 16 17 18 18 18 17 16 16 16 16 16 17 17 15 11 7 5 4 4 5 7 8 8 8 8 8 8 6 3
6 6 6 6 7 7 8 8 8 8 9 9 9 9 9 9 9 9 9 10 10 10 10 10 11 11 10 10 9 9 9 8 8 8 9 9 10 11 11 12 13 15 17 17 17 16 15 14 14 13 13 12 10 6 3 0 1 2 2 3 4 4 5 6 6 7 7 7 4
6 6 6 7 7 7 8 8 8 8 8 9 9 9 9 9 9 9 9 9 10 10 10 11 11 11 11 11 10 9 9 8 8 7 8 8 9 10 9 9 10 12 13 15 14 14 12 11 11 10 9 8 5 2 -0 -1 1 3 3 3 3 3 3 4 4 6 7 9 8
6 6 7 7 7 7 7 8 8 8 8 8 9 9 9 9 9 9 9 9 9 10 10 10 11 11 11 11 11 10 9 9 8 7 7 7 8 9 9 9 9 9 11 13 13 12 11 10 8 8 7 6 4 2 0 0 2 4 5 5 4 3 3 2 3 4 5 8 10
6 6 7 7 7 7 7 8 8 8 8 8 9 9 9 9 9 9 9 9 9 9 10 10 10 11 11 11 11 10 10 9 8 8 7 6 7 8 9 10 9 9 10 12 14 14 13 11 10 9 8 8 7 5 3 3 4 5 6 6 5 4 3 2 2 2 2 3 4
6 7 7 7 7 7 8 8 8 8 8 9 9 9 9 9 9 9 8 9 9 9 9 10 10 10 10 11 11 10 10 9 9 8 7 6 6 7 8 10 10 10 10 11 14 15 15 15 14 13 13 13 12 10 8 6 6 6 5 4 4 3 2 1 1 -0 -2 -3 -4
Height
3059 3057 3055 3053 3051 3048 3046 3043 3041 3038 3035 3032 3030 3027 3024 3021 3018 3015 3012 3009 3006 3003 3000 2997 2994 2991 2987 2984 2981 2979 2976 2973 2972 2970 2969 2968 2966 2964 2963 2961 2959 2957 2955 2952 2950 2947 2945 2941 2938 2936 2933 2931 2929 2926 2924 2921 2919 2916 2914 2912 2910 2907 2905 2903 2901 2899 2898 2896 2895
3058 3056 3054 3051 3049 3047 3044 3042 3039 3036 3034 3031 3028 3026 3023 3020 3017 3014 3011 3008 3005 3002 2999 2996 2992 2989 2986 2984 2981 2978 2975 2972 2970 2969 2968 2967 2965 2964 2962 2960 2958 2956 2954 2952 2950 2947 2944 2941 2938 2936 2934 2931 2929 2926 2924 2922 2920 2918 2916 2913 2911 2909 2906 2904 2902 2900 2899 2897 2896
3057 3054 3052 3050 3047 3045 3043 3040 3038 3035 3032 3030 3027 3024 3021 3019 3016 3013 3011 3007 3004 3001 2998 2994 2991 2989 2986 2983 2980 2977 2974 2971 2969 2967 2966 2966 2964 2963 2961 2959 2958 2956 2954 2951 2949 2947 2944 2941 2938 2936 2934 2932 2930 2927 2925 2923 2921 2919 2916 2914 2912 2910 2908 2906 2903 2901 2900 2898 2897
3056 3053 3051 3049 3046 3044 3042 3039 3036 3034 3031 3029 3026 3023 3021 3018 3015 3012 3009 3006 3003 3000 2997 2994 2991 2988 2985 2982 2979 2976 2973 2971 2968 2966 2965 2964 2963 2962 2960 2959 2957 2955 2953 2951 2949 2947 2944 2941 2939 2936 2934 2932 2930 2928 2926 2924 2921 2920 2917 2916 2913 2911 2909 2907 2905 2903 2901 2900 2898
3054 3052 3050 3048 3046 3043 3041 3038 3036 3033 3030 3027 3025 3022 3020 3017 3014 3011 3008 3005 3002 2999 2996 2993 2990 2987 2984 2981 2978 2976 2973 2970 2968 2966 2964 2963 2962 2961 2960 2958 2956 2955 2953 2951 2949 2947 2944 2942 2939 2937 2935 2932 2931 2928 2926 2924 2922 2921 2918 2916 2915 2912 2911 2909 2907 2905 2903 2901 2900
3053 3051 3049 3046 3044 3042 3040 3037 3035 3032 3030 3027 3024 3021 3018 3016 3013 3010 3007 3005 3002 2999 2996 2992 2989 2986 2983 2981 2978 2975 2972 2970 2967 2965 2963 2962 2961 2960 2959 2957 2956 2954 2952 2951 2949 2946 2944 2942 2939 2937 2935 2933 2931 2929 2927 2925 2923 2921 2919 2917 2916 2914 2912 2911 2909 2907 2905 2902 2901
3052 3050 3048 3046 3043 3041 3038 3036 3033 3031 3028 3026 3023 3021 3018 3015 3012 3009 3007 3004 3001 2997 2995 2992 2989 2986 2983 2980 2977 2974 2972 2969 2966 2964 2963 2961 2960 2959 2958 2956 2955 2954 2952 2950 2948 2946 2945 2942 2940 2938 2936 2934 2932 2930 2928 2926 2924 2922 2920 2918 2916 2915 2913 2911 2910 2908 2906 2904 2902
3051 3049 3047 3045 3042 3040 3037 3035 3032 3030 3027 3025 3022 3020 3017 3014 3011 3009 3006 3003 3000 2997 2994 2991 2988 2985 2982 2979 2976 2974 2971 2969 2966 2964 2962 2961 2959 2958 2957 2956 2954 2953 2951 2950 2948 2946 2945 2942 2941 2938 2936 2934 2932 2931 2928 2926 2925 2922 2921 2919 2917 2915 2914 2912 2911 2909 2907 2905 2903
3050 3048 3046 3044 3041 3039 3036 3034 3031 3029 3026 3024 3021 3019 3016 3013 3011 3008 3005 3002 3000 2997 2994 2991 2987 2985 2982 2979 2976 2973 2971 2968 2966 2963 2961 2960 2958 2957 2956 2955 2954 2952 2951 2950 2948 2946 2944 2942 2941 2939 2937 2935 2933 2931 2930 2927 2926 2924 2921 2920 2918 2916 2915 2913 2911 2910 2908 2906 2905
3049 3047 3045 3042 3040 3038 3035 3033 3030 3028 3026 3023 3020 3018 3015 3012 3010 3007 3005 3002 2999 2996 2993 2990 2987 2984 2981 2978 2976 2973 2970 2967 2965 2963 2961 2959 2957 2956 2955 2954 2953 2952 2951 2949 2947 2946 2944 2942 2941 2939 2937 2935 2934 2932 2930 2928 2926 2925 2923 2921 2919 2918 2916 2915 2913 2911 2909 2908 2906
3048 3046 3044 3042 3039 3037 3035 3032 3029 3027 3024 3022 3019 3017 3014 3011 3009 3006 3004 3001 2998 2996 2992 2989 2986 2984 2981 2978 2976 2972 2970 2967 2964 2962 2960 2958 2957 2956 2955 2953 2952 2951 2950 2948 2947 2946 2944 2942 2941 2939 2937 2936 2934 2932 2931 2929 2927 2926 2924 2922 2920 2919 2917 2916 2914 2912 2910 2909 2907
3047 3045 3043 3041 3039 3036 3034 3031 3029 3026 3024 3021 3018 3016 3013 3011 3008 3006 3003 3000 2998 2995 2992 2989 2986 2983 2981 2978 2975 2972 2969 2966 2964 2961 2959 2958 2956 2955 2954 2953 2951 2950 2949 2948 2946 2945 2944 2942 2941 2939 2937 2936 2934 2932 2931 2929 2928 2926 2924 2922 2921 2919 2917 2916 2914 2912 2911 2910 2908
3046 3044 3042 3040 3037 3035 3033 3030 3028 3025 3023 3020 3018 3015 3013 3010 3007 3005 3002 3000 2997 2994 2991 2989 2986 2983 2980 2977 2975 2972 2969 2966 2963 2961 2959 2957 2956 2954 2953 2952 2951 2950 2948 2947 2946 2945 2943 2941 2940 2938 2937 2935 2934 2932 2931 2929 2928 2926 2925 2923 2921 2920 2918 2916 2915 2913 2912 2911 2909
3045 3043 3041 3039 3037 3034 3032 3029 3027 3024 3022 3019 3017 3014 3012 3009 3007 3004 3002 2999 2997 2994 2991 2988 2986 2983 2980 2977 2974 2971 2969 2966 2963 2961 2959 2957 2955 2953 2952 2951 2950 2949 2948 2946 2945 2944 2942 2941 2939 2938 2936 2935 2933 2932 2931 2929 2927 2926 2925 2923 2921 2920 2919 2917 2916 2914 2913 2911 2910
3044 3042 3040 3038 3036 3033 3031 3028 3026 3023 3021 3018 3016 3013 3011 3009 3006 3004 3001 2999 2996 2993 2991 2988 2985 2982 2980 2977 2974 2971 2969 2966 2963 2961 2958 2956 2955 2953 2952 2951 2949 2948 2947 2946 2945 2943 2942 2941 2939 2937 2936 2934 2933 2931 2930 2929 2927 2926 2924 2923 2921 2920 2919 2917 2916 2915 2913 2912 2911
3043 3041 3039 3037 3035 3032 3030 3027 3025 3022 3020 3017 3015 3012 3010 3008 3006 3003 3001 2998 2996 2993 2990 2987 2985 2982 2979 2976 2974 2971 2969 2966 2963 2961 2958 2956 2954 2953 2951 2950 2949 2947 2946 2945 2944 2943 2941 2940 2938 2936 2935 2934 2932 2931 2930 2928 2927 2926 2924 2923 2921 2920 2918 2917 2916 2915 2913 2912 2911
3042 3040 3038 3036 3034 3031 3029 3026 3024 3021 3019 3017 3014 3012 3010 3007 3005 3002 3000 2997 2995 2992 2990 2987 2984 2981 2979 2976 2974 2971 2968 2966 2963 2961 2958 2956 2954 2952 2951 2949 2948 2946 2946 2944 2943 2942 2941 2939 2937 2936 2935 2933 2932 2931 2929 2928 2926 2925 2924 2922 2921 2920 2918 2917 2915 2914 2913 2912 2911
3041 3039 3037 3035 3033 3031 3028 3026 3023 3021 3018 3016 3013 3011 3009 3006 3004 3002 2999 2997 2995 2992 2989 2987 2984 2981 2979 2976 2973 2971 2968 2966 2963 2961 2958 2956 2954 2952 2950 2949 2947 2946 2945 2943 2942 2941 2940 2938 2937 2936 2934 2933 2931 2930 2929 2927 2926 2924 2923 2921 2920 2919 2917 2916 2915 2913 2912 2911 2910
3040 3038 3036 3034 3032 3030 3027 3025 3022 3020 3017 3015 3013 3010 3008 3006 3003 3001 2999 2996 2994 2991 2989 2986 2984 2981 2978 2976 2973 2970 2968 2965 2963 2960 2958 2956 2953 2951 2950 2948 2946 2945 2944 2943 2941 2941 2939 2938 2936 2935 2933 2932 2931 2929 2928 2926 2925 2924 2922 2921 2919 2918 2916 2915 2914 2912 2911 2910 2909
3039 3037 3035 3033 3031 3029 3026 3024 3021 3019 3017 3014 3012 3010 3007 3005 3003 3000 2998 2996 2993 2991 2989 2986 2983 2981 2978 2975 2973 2970 2967 2965 2962 2960 2958 2955 2953 2951 2949 2947 2946 2945 2943 2942 2941 2940 2938 2937 2936 2934 2933 2931 2930 2929 2927 2926 2924 2922 2921 2919 2918 2916 2915 2913 2912 2911 2910 2909 2908
3038 3036 3034 3032 3030 3028 3025 3023 3021 3018 3016 3014 3011 3009 3007 3004 3002 3000 2997 2995 2993 2991 2988 2986 2983 2980 2977 2975 2972 2970 2967 2965 2962 2960 2957 2955 2953 2951 2949 2947 2946 2944 2943 2941 2940 2939 2937 2936 2935 2934 2932 2931 2930 2928 2926 2925 2923 2921 2920 2918 2916 2915 2913 2912 2911 2910 2909 2907 2906
3036 3035 3033 3031 3029 3026 3024 3022 3020 3017 3015 3013 3011 3008 3006 3004 3001 2999 2997 2995 2992 2990 2988 2985 2982 2980 2977 2975 2972 2970 2967 2965 2962 2960 2957 2955 2953 2951 2948 2946 2945 2943 2942 2941 2939 2938 2936 2935 2934 2933 2931 2930 2929 2927 2926 2924 2922 2920 2918 2916 2915 2913 2912 2910 2909 2908 2907 2906 2905
3036 3034 3032 3030 3028 3026 3023 3021 3019 3016 3014 3012 3010 3007 3005 3003 3001 2999 2996 2994 2992 2990 2987 2985 2982 2980 2977 2975 2972 2969 2967 2964 2962 2960 2957 2955 2952 2950 2948 2946 2944 2943 2941 2940 2939 2937 2936 2934 2933 2932 2931 2930 2928 2926 2925 2923 2921 2919 2917 2915 2913 2911 2910 2909 2907 2906 2906 2905 2904
3035 3033 3031 3029 3027 3025 3022 3020 3018 3016 3013 3011 3009 3007 3005 3002 3000 2998 2996 2994 2991 2989 2987 2985 2982 2979 2977 2974 2972 2969 2967 2964 2962 2959 2957 2955 2952 2950 2948 2946 2944 2942 2941 2940 2938 2937 2936 2935 2932 2931 2930 2929 2927 2926 2924 2922 2920 2918 2916 2914 2911 2910 2908 2907 2906 2905 2904 2903 2902
3033 3031 3030 3028 3026 3024 3021 3019 3017 3015 3013 3011 3008 3006 3004 3002 3000 2997 2995 2993 2991 2989 2986 2984 2982 2979 2976 2974 2971 2969 2966 2964 2961 2959 2957 2955 2952 2950 2948 2946 2944 2942 2940 2939 2938 2937 2936 2936 2933 2930 2928 2927 2926 2925 2923 2921 2919 2917 2915 2913 2910 2908 2906 2905 2904 2903 2902 2901 2900
3032 3031 3029 3027 3025 3023 3021 3019 3016 3014 3012 3010 3008 3006 3003 3001 2999 2997 2995 2993 2991 2989 2986 2984 2982 2979 2976 2974 2971 2969 2966 2964 2961 2959 2957 2955 2952 2950 2948 2946 2944 2941 2940 2938 2937 2936 2936 2935 2934 2931 2928 2926 2925 2924 2922 2920 2918 2916 2914 2912 2910 2907 2905 2903 2902 2901 2900 2899 2898
3031 3030 3028 3026 3024 3022 3020 3018 3016 3013 3011 3009 3007 3005 3003 3001 2998 2996 2994 2992 2991 2988 2986 2984 2981 2979 2976 2974 2971 2968 2966 2964 2961 2959 2956 2954 2952 2950 2948 2946 2944 2941 2940 2938 2937 2936 2935 2934 2934 2932 2929 2926 2924 2923 2921 2919 2917 2916 2914 2911 2909 2907 2905 2903 2901 2900 2899 2898 2897
3030 3029 3027 3025 3023 3021 3019 3017 3015 3013 3011 3009 3006 3004 3002 3000 2998 2996 2994 2992 2990 2988 2986 2983 2981 2978 2976 2973 2971 2968 2966 2963 2961 2959 2956 2954 2952 2950 2948 2946 2944 2941 2940 2938 2936 2935 2934 2933 2932 2931 2930 2926 2924 2922 2921 2919 2917 2915 2913 2911 2909 2906 2904 2902 2901 2899 2898 2896 2895
3029 3028 3026 3024 3022 3020 3018 3016 3014 3012 3010 3008 3006 3004 3001 3000 2997 2996 2993 2991 2989 2987 2985 2983 2981 2978 2976 2973 2971 2968 2966 2963 2961 2958 2956 2954 2952 2950 2947 2946 2943 2941 2940 2938 2936 2935 2933 2932 2931 2930 2929 2927 2924 2922 2920 2918 2917 2915 2913 2911 2909 2906 2904 2902 2901 2899 2897 2896 2894
3028 3026 3025 3023 3021 3019 3017 3015 3013 3011 3009 3007 3005 3003 3001 2999 2997 2995 2993 2991 2989 2987 2985 2983 2981 2978 2976 2973 2971 2968 2966 2963 2961 2958 2956 2954 2951 2949 2947 2945 2943 2941 2939 2938 2936 2934 2933 2931 2930 2929 2928 2928 2925 2922 2920 2918 2916 2915 2913 2911 2909 2906 2905 2902 2901 2899 2897 2895 2894
3027 3026 3024 3022 3020 3018 3016 3015 3013 3011 3009 3007 3005 3003 3001 2998 2996 2994 2992 2990 2988 2986 2984 2982 2980 2978 2976 2973 2971 2968 2966 2963 2961 2958 2956 2954 2951 2949 2947 2945 2943 2941 2939 2937 2936 2934 2933 2931 2930 2929 2928 2927 2926 2923 2920 2918 2916 2915 2913 2910 2908 2906 2904 2903 2901 2899 2897 2895 2893
3026 3025 3023 3021 3019 3017 3016 3014 3012 3010 3008 3006 3004 3002 3000 2998 2996 2994 2992 2990 2988 2986 2983 2981 2979 2977 2975 2973 2971 2968 2966 2963 2961 2959 2956 2954 2951 2949 2947 2945 2943 2941 2939 2937 2936 2934 2932 2931 2929 2928 2927 2926 2924 2922 2920 2918 2916 2914 2912 2910 2907 2906 2904 2902 2901 2899 2897 2895 2894
3025 3024 3022 3020 3019 3017 3015 3013 3011 3009 3007 3006 3004 3001 3000 2997 2996 2993 2991 2989 2987 2985 2983 2981 2979 2977 2975 2973 2971 2968 2966 2964 2961 2959 2956 2954 2952 2949 2947 2945 2943 2941 2939 2937 2935 2933 2932 2930 2929 2927 2926 2925 2923 2921 2919 2918 2916 2914 2912 2910 2907 2905 2903 2902 2900 2899 2897 2896 2894
3024 3022 3021 3019 3018 3016 3014 3012 3011 3009 3007 3005 3003 3001 2999 2997 2995 2993 2991 2989 2987 2985 2983 2981 2979 2977 2975 2973 2971 2969 2966 2964 2961 2959 2957 2955 2952 2950 2947 2945 2943 2941 2939 2937 2935 2933 2932 2930 2929 2927 2926 2924 2922 2921 2919 2918 2916 2914 2912 2910 2907 2905 2903 2901 2900 2899 2897 2896 2894
3023 3021 3020 3018 3017 3015 3013 3011 3010 3008 3006 3004 3002 3000 2998 2996 2994 2992 2991 2989 2986 2985 2982 2981 2979 2976 2975 2972 2971 2968 2966 2964 2962 2959 2957 2955 2952 2950 2948 2945 2943 2941 2939 2937 2935 2933 2932 2930 2928 2927 2925 2924 2922 2921 2919 2917 2916 2914 2912 2910 2907 2905 2903 2901 2899 2898 2896 2895 2893
3022 3021 3019 3017 3016 3014 3013 3011 3009 3007 3005 3003 3001 3000 2998 2996 2994 2992 2990 2988 2986 2984 2982 2980 2978 2976 2974 2972 2970 2968 2966 2964 2962 2960 2957 2955 2953 2950 2948 2946 2944 2941 2939 2937 2935 2934 2932 2930 2928 2927 2925 2923 2922 2920 2919 2917 2915 2913 2911 2909 2907 2905 2902 2901 2898 2897 2896 2894 2892
3021 3020 3018 3016 3015 3013 3012 3010 3008 3006 3005 3003 3001 2999 2997 2996 2994 2991 2989 2987 2986 2983 2981 2980 2978 2976 2974 2972 2970 2968 2966 2964 2962 2960 2958 2955 2953 2951 2948 2946 2944 2942 2940 2938 2936 2934 2932 2930 2928 2926 2925 2923 2921 2920 2918 2916 2914 2912 2910 2908 2906 2904 2902 2900 2898 2896 2895 2893 2892
3020 3019 3017 3016 3014 3013 3011 3009 3008 3006 3004 3002 3001 2999 2997 2995 2993 2991 2989 2987 2985 2983 2981 2979 2977 2976 2974 2972 2970 2968 2966 2964 2962 2960 2957 2955 2953 2951 2949 2946 2944 2942 2940 2938 2936 2934 2932 2930 2928 2926 2925 2923 2921 2919 2917 2915 2913 2911 2909 2907 2906 2904 2902 2900 2898 2896 2894 2892 2891
3019 3018 3016 3015 3013 3012 3010 3009 3007 3005 3004 3002 3000 2998 2996 2995 2992 2991 2989 2987 2985 2983 2981 2979 2977 2975 2973 2971 2969 2967 2966 2963 2961 2959 2957 2955 2953 2951 2949 2947 2945 2943 2941 2938 2936 2934 2932 2930 2928 2926 2924 2922 2921 2919 2916 2914 2912 2910 2908 2906 2905 2903 2901 2899 2897 2896 2894 2892 2891
3018 3017 3015 3014 3012 3011 3010 3008 3006 3005 3003 3001 3000 2998 2996 2994 2992 2991 2988 2986 2984 2982 2980 2978 2976 2975 2973 2971 2969 2967 2965 2963 2961 2959 2957 2955 2953 2951 2949 2947 2945 2943 2941 2939 2936 2934 2932 2930 2928 2926 2924 2922 2920 2918 2916 2914 2911 2909 2907 2905 2903 2901 2900 2898 2896 2895 2893 2891 2890
3017 3016 3014 3013 3011 3010 3009 3007 3006 3004 3003 3001 2999 2997 2996 2994 2992 2990 2988 2986 2984 2982 2980 2978 2976 2974 2972 2970 2968 2966 2964 2962 2960 2958 2956 2955 2953 2951 2949 2947 2945 2943 2941 2939 2936 2934 2932 2930 2928 2926 2924 2922 2920 2918 2916 2913 2911 2908 2906 2904 2903 2901 2899 2897 2895 2894 2892 2891 2889